Погода в Тайге

Россия / Кемеровская область (Кузбасс)     56°03′54″N   85°37′51″E
темп.,
°C
ветер,
м/с
пор.,
м/с
влажн.,
%
обл.,
%
осадки,
мм/ч
давл.,
гПа
погр.,
м
21 апреля, ср
ср2101:00−7ююз2783100 0.0 1024216
04:00−6ююз3885100 0.0 1022353
07:00−6ю3980100 0.0 1022532
10:00−3ююз4668100 0.0 10221096
13:00−1ююз3564100 0.2 10231418
16:000ю2358100 0.3 10231294
19:000в115897 0.6 1025853
22:00−4всв268999 0.1 1029147
22 апреля, чт
чт2201:00−6ссв249591 0.1 103167
04:00−6ссв279336 0.0 1033146
07:00−6ссв389350 0.0 1037285
10:00−1св476766 0.0 10381164
13:00+1св4653100 0.1 10401719
16:00+2ссв4553100 0.1 10401619
19:00+1ссв366993 0.2 1042939
22:00−3ссв29935 0.0 1045249
23 апреля, пт
пт2301:00−3ссв39965 0.0 1045246
04:00−4ссв289825 0.0 1045188
07:00−4ссв389519 0.0 1046287
10:00+1св47666 0.0 10451133
13:00+4св575098 0.0 10441711
16:00+5св5750100 0.0 10431721
19:00+3ссв476353 0.1 1043804
22:00−1ссв310905 0.0 1043271
24 апреля, сб
сб2401:00−2ссв310925 0.0 1042294
04:00−3ссв399424 0.0 1041245
07:00−2ссв31089100 0.0 1040384
10:00+2ссв5870100 0.0 1038781
13:00+5ссв4655100 0.0 10351201
16:00+5ссв465391 0.0 10341581
19:00+4с376958 0.0 1033601
22:00−1с299025 0.0 1034185
25 апреля, вс
вс2501:00−1с259469 0.0 1033103
04:00−1ссз249373 0.0 103374
07:000ссз248866 0.0 1033124
10:00+5ссз236456 0.0 1033736
13:00+7сз225686 0.0 10321437
16:00+8сз335581 0.0 10311448
19:00+5сз2372100 0.0 103280
22:00+2зсз1181100 0.0 103310